"2010-01-11 00:00:00",1581396,2.897,94.2,6.531,1.167,7.609,102.0678,4.576,5.803,26.55,0,109.9,13.45,5.34,56.2
"2010-01-11 00:00:30",1581397,3.993,102.4,4.805,1.056,10.43,102.063,4.564,5.942,26.75,0,109.9,13.44,5.33,64.4
"2010-01-11 00:01:00",1581398,4.032,103.5,5.056,0.994,9.96,102.0421,4.511,5.905,26.85,0,109.9,13.44,5.28,65.5
"2010-01-11 00:01:30",1581399,2.503,93.5,6.111,1.036,6.82,102.0339,4.49,5.764,26.72,0,109.9,13.44,5.26,55.5
"2010-01-11 00:02:00",1581400,2.458,93.1,8.6,1.153,6.691,102.0336,4.489,5.629,26.57,0,109.9,13.44,5.26,55.1
"2010-01-11 00:02:30",1581401,1.646,92,2.55,0.063,5.594,102.0229,4.462,5.568,26.49,0,109.9,13.47,5.23,54.0
"2010-01-11 00:03:00",1581402,1.475,87.7,2.972,0.101,5.634,102.0082,4.424,5.554,26.5,0,109.9,13.47,5.19,49.7
"2010-01-11 00:03:30",1581403,1.218,84.8,3.691,0.138,5.975,102.0006,4.405,5.513,26.43,0,109.9,13.48,5.17,46.8
"2010-01-11 00:04:00",1581404,1.611,84.9,5.11,1.1,7.733,102.0009,4.405,5.601,26.54,0,109.9,13.45,5.17,46.9
"2010-01-11 00:04:30",1581405,3.279,83.9,9.07,0.392,11.1,101.9995,4.402,5.822,26.76,0,109.9,13.45,5.17,45.9
"2010-01-11 00:05:00",1581406,1.715,65.56,6.223,1.205,7.236,101.9812,4.355,5.629,26.65,0,109.9,13.45,5.12,27.6
"2010-01-11 00:05:30",1581407,1.37,58.4,5.882,1.116,6.419,101.9788,4.349,5.505,26.75,0,109.9,13.45,5.12,20.4
"2010-01-11 00:06:00",1581408,0.914,62.53,6.666,0.949,5.697,101.984,4.362,5.55,26.97,0,109.9,13.45,5.13,24.5
"2010-01-11 00:06:30",1581409,1.458,71.96,12.35,1.164,6.724,101.9868,4.37,5.475,26.92,0,109.8,13.45,5.14,34.0
"2010-01-11 00:07:00",1581410,0.485,67.46,3.289,0.05,5.088,101.9853,4.366,5.417,26.89,0,109.8,13.49,5.13,29.5
"2010-01-11 00:07:30",1581411,0.285,60,7.106,0.038,5.186,101.9715,4.33,5.395,26.91,0,109.8,13.49,5.10,22.0
"2010-01-11 00:08:00",1581412,0.377,87.9,8.81,0.091,5.643,101.9645,4.312,5.379,26.95,0,109.8,13.5,5.08,49.9
"2010-01-11 00:08:30",1581413,0.962,83.2,6.837,0.878,6.487,101.9662,4.317,5.364,26.97,0,109.8,13.46,5.08,45.2
"2010-01-11 00:09:00",1581414,1.629,90,7.329,1.146,7.952,101.9628,4.308,5.5,27.08,0,109.8,13.47,5.08,52.0
"2010-01-11 00:09:30",1581415,2.257,94.1,7.206,1.289,9.16,101.9498,4.275,5.582,27.11,0,109.8,13.47,5.04,56.1
"2010-01-11 00:10:00",1581416,2.047,92.8,9.08,1.258,8.59,101.9343,4.235,5.555,27.06,0,109.8,13.47,5.00,54.8
"2010-01-11 00:10:30",1581417,1.23,97.7,5.748,0.965,5.926,101.9329,4.232,5.367,26.88,0,109.8,13.46,5.00,59.7
"2010-01-11 00:11:00",1581418,1.746,85.5,15.56,1.23,7.303,101.9323,4.23,5.352,26.89,0,109.8,13.46,5.00,47.5
"2010-01-11 00:11:30",1581419,0.766,76.85,7.267,0.088,5.257,101.9193,4.197,5.259,26.8,0,109.8,13.5,4.96,38.8
"2010-01-11 00:12:00",1581420,0.737,81.5,8.25,0.071,5.432,101.9023,4.154,5.237,26.84,0,109.8,13.5,4.92,43.5
"2010-01-11 00:12:30",1581421,0.582,57.46,5.344,0.079,5.274,101.8989,4.145,5.236,26.9,0,109.8,13.5,4.91,19.5
"2010-01-11 00:13:00",1581422,0.693,81.7,11.58,0.631,6.988,101.8989,4.145,5.382,27.14,0,109.8,13.48,4.91,43.7
"2010-01-11 00:13:30",1581423,1.303,65.99,17.85,1.182,7.265,101.8905,4.124,5.198,27,0,109.8,13.48,4.89,28.0
"2010-01-11 00:14:00",1581424,0.444,37.08,6.546,0.667,6.501,101.8681,4.067,5.335,27.26,0,109.8,13.48,4.83,359.1
"2010-01-11 00:15:30",1581425,1.61,50.9,8.11,1.148,7.051,101.865,4.059,5.253,27.37,0,109.8,13.47,4.82,12.9
"2010-01-11 00:16:00",1581426,1.831,50.43,5.743,1.279,7.055,101.865,4.059,5.27,27.54,0,109.8,13.47,4.82,12.4
"2010-01-11 00:16:30",1581427,1.098,43.37,9.85,1.069,6.044,101.8534,4.029,5.276,27.61,0,109.8,13.47,4.80,5.4
"2010-01-11 00:17:00",1581428,1.169,45.01,11.36,1.019,5.474,101.8399,3.994,5.097,27.48,0,109.8,13.47,4.76,7.0
"2010-01-11 00:17:30",1581429,0.734,41.83,3.62,0.041,4.875,101.8343,3.98,5.092,27.52,0,109.8,13.5,4.75,3.8
"2010-01-11 00:18:00",1581430,0.542,50.88,3.58,0.128,5.068,101.836,3.985,5.082,27.48,0,109.8,13.51,4.75,12.9
"2010-01-11 00:18:30",1581431,1.18,51.17,9.12,1.054,6.117,101.8285,3.965,5.102,27.49,0,109.8,13.47,4.73,13.2
"2010-01-11 00:19:00",1581432,1.869,68.96,6.472,1.286,7.978,101.817,3.936,5.146,27.5,0,109.8,13.48,4.70,31.0
"2010-01-11 00:19:30",1581433,0.723,65.28,3.67,0.056,5.812,101.8205,3.945,5.098,27.46,0,109.8,13.52,4.71,27.3
"2010-01-11 00:20:00",1581434,2.575,61.06,7.248,1.194,9.19,101.8231,3.952,5.268,27.62,0,109.8,13.48,4.72,23.1
"2010-01-11 00:20:30",1581435,2.798,62.19,9.76,1.167,8.54,101.8139,3.928,5.146,27.62,0,109.8,13.48,4.69,24.2
"2010-01-11 00:21:00",1581436,2.301,66.62,7.271,1.225,7.376,101.7975,3.886,5.09,27.65,0,109.8,13.48,4.65,28.6
"2010-01-11 00:21:30",1581437,1.131,59.47,5.468,0.076,5.267,101.797,3.885,4.943,27.59,0,109.8,13.52,4.65,21.5
"2010-01-11 00:22:00",1581438,1.084,66,2.126,0.055,5.137,101.797,3.885,4.929,27.6,0,109.8,13.52,4.65,28.0
"2010-01-11 00:22:30",1581439,2.297,65.85,6.333,1.267,7.614,101.7837,3.851,5.047,27.69,0,109.8,13.49,4.62,27.8
"2010-01-11 00:23:00",1581440,1.537,63.27,12.65,1.042,7.18,101.7662,3.806,5.058,27.73,0,109.8,13.49,4.57,25.3
"2010-01-11 00:23:30",1581441,1.06,67.48,5.857,0.146,5.647,101.7639,3.8,4.893,27.61,0,109.8,13.49,4.57,29.5
"2010-01-11 00:24:00",1581442,1.686,68.81,7.684,1.129,7.249,101.7639,3.8,5.045,27.79,0,109.8,13.49,4.57,30.8
"2010-01-11 00:24:30",1581443,2.415,72.14,8.54,1.252,9.06,101.7622,3.796,5.114,27.91,0,109.8,13.49,4.56,34.1
"2010-01-11 00:25:00",1581444,2.127,72.75,6.68,1.246,8.29,101.7512,3.768,4.992,27.84,0,109.8,13.49,4.53,34.8
"2010-01-11 00:25:30",1581445,0.857,62.47,3.136,0.084,5.214,101.7382,3.735,4.817,27.74,0,109.8,13.52,4.50,24.5
"2010-01-11 00:26:00",1581446,0.926,69.51,4.728,0.046,5.102,101.73,3.714,4.801,27.8,0,109.8,13.52,4.48,31.5
"2010-01-11 00:26:30",1581447,0.863,67.1,5.409,0.114,5.489,101.73,3.714,4.895,27.94,0,109.8,13.53,4.48,29.1
"2010-01-11 00:27:00",1581448,2.076,76.55,8.13,1.332,7.393,101.73,3.714,4.809,27.88,0,109.8,13.5,4.48,38.6
"2010-01-11 00:27:30",1581449,0.917,80.3,3.895,0.079,5.557,101.7266,3.705,4.809,27.87,0,109.8,13.53,4.47,42.3
"2010-01-11 00:28:00",1581450,1.845,85.8,10.38,1.231,6.757,101.717,3.681,4.756,27.77,0,109.8,13.5,4.45,47.8
"2010-01-11 00:28:30",1581451,1.632,91.5,6.31,1.108,6.83,101.7031,3.645,4.909,28.03,0,109.8,13.5,4.41,53.5
"2010-01-11 00:29:00",1581452,3.388,98,5.03,0.984,9.84,101.6966,3.629,4.967,28.22,0,109.8,13.5,4.39,60.0
"2010-01-11 00:29:30",1581453,2.574,97.2,8.27,1.275,8.55,101.6964,3.628,4.943,28.21,0,109.8,13.5,4.39,59.2
"2010-01-11 00:30:00",1581454,1.518,88,2.494,0.151,5.93,101.6961,3.627,4.713,27.98,0,109.8,13.53,4.39,50.0
"2010-01-11 00:30:30",1581455,2.435,97.9,4.905,1.259,7.628,101.6964,3.628,4.774,28.26,0,109.8,13.5,4.39,59.9
"2010-01-11 00:31:00",1581456,2.486,95,14.22,1.344,7.582,101.6975,3.631,4.838,28.43,0,109.7,13.49,4.40,57.0
"2010-01-11 00:31:30",1581457,1.644,97.7,3.92,0.092,5.376,101.699,3.635,4.717,28.36,0,109.7,13.53,4.40,59.7
"2010-01-11 00:32:00",1581458,3.002,108,8.35,1.299,7.582,101.6959,3.627,4.837,28.72,0,109.7,13.49,4.39,70.0
"2010-01-11 00:32:30",1581459,2.549,114.4,5.693,1.132,6.566,101.6931,3.62,4.792,29.4,0,109.7,13.5,4.38,76.4
"2010-01-11 00:33:00",1581460,3.613,119.3,6.398,1.185,9.16,101.6897,3.611,4.897,30.18,0,109.7,13.5,4.38,81.3
"2010-01-11 00:33:30",1581461,2.598,122.4,5.194,1.161,7.184,101.6867,3.603,4.908,30.66,0,109.7,13.5,4.37,84.4
"2010-01-11 00:34:00",1581462,2.904,131.6,7.057,1.254,7.147,101.6839,3.596,4.816,31.01,0,109.7,13.5,4.36,93.6
"2010-01-11 00:34:30",1581463,2.317,136.4,6.896,0.999,5.681,101.6847,3.598,4.849,31.47,0,109.7,13.49,4.36,98.4
"2010-01-11 00:35:00",1581464,2.146,138,3.268,0.673,4.903,101.6905,3.613,4.669,31.81,0,109.7,13.49,4.38,100.0
"2010-01-11 00:35:30",1581465,2.207,135,3.665,0.905,6.292,101.6925,3.618,4.838,32.21,0,109.7,13.5,4.38,97.0
"2010-01-11 00:36:00",1581466,2.881,129.2,8.13,1.268,7.38,101.6897,3.611,4.747,31.97,0,109.7,13.5,4.38,91.2
"2010-01-11 00:36:30",1581467,2.891,120.1,6.92,1.261,7.963,101.69,3.612,4.866,31.82,0,109.7,13.5,4.38,82.1
"2010-01-11 00:37:00",1581468,2.942,115.4,7.619,1.179,8.07,101.694,3.622,4.769,31.14,0,109.7,13.5,4.39,77.4
"2010-01-11 00:37:30",1581469,2.958,116.3,8.01,1.311,7.73,101.6923,3.618,4.715,30.54,0,109.7,13.5,4.38,78.3
"2010-01-11 00:38:00",1581470,2.651,126.7,6.894,1.268,7.143,101.6966,3.629,4.831,30.68,0,109.7,13.5,4.39,88.7
"2010-01-11 00:38:30",1581471,1.652,124.5,1.793,0.22,4.96,101.6986,3.634,4.661,31.04,0,109.7,13.5,4.40,86.5
"2010-01-11 00:39:00",1581472,1.913,129.6,2.143,0.474,5.054,101.6992,3.635,4.744,31.36,0,109.7,13.51,4.40,91.6
"2010-01-11 00:39:30",1581473,3.771,141.3,5.918,1.132,8.9,101.6983,3.633,4.859,31.71,0,109.7,13.51,4.40,103.3
"2010-01-11 00:40:00",1581474,3.511,140.5,6.063,1.233,8.81,101.6975,3.631,4.913,31.79,0,109.7,13.51,4.40,102.5
"2010-01-11 00:40:30",1581475,3.162,136.6,6.793,1.256,7.808,101.698,3.632,4.867,31.71,0,109.7,13.51,4.40,98.6
"2010-01-11 00:41:00",1581476,2.172,131.3,3.936,0.893,5.539,101.6986,3.634,4.76,31.55,0,109.7,13.51,4.40,93.3
"2010-01-11 00:41:30",1581477,2.972,134.9,7.465,1.246,7.116,101.6978,3.632,4.79,31.49,0,109.7,13.51,4.40,96.9
"2010-01-11 00:42:00",1581478,1.827,125.3,2.121,0.097,4.941,101.6975,3.631,4.669,31.23,0,109.7,13.54,4.40,87.3
"2010-01-11 00:42:30",1581479,2.899,135.1,6.825,1.221,7.199,101.6975,3.631,4.798,31.35,0,109.7,13.51,4.40,97.1
"2010-01-11 00:43:00",1581480,2.288,131.3,5.743,1.103,6.786,101.6978,3.632,4.845,31.55,0,109.7,13.51,4.40,93.3
"2010-01-11 00:43:30",1581481,3.436,140.4,5.056,1.084,8.96,101.6972,3.63,4.919,31.71,0,109.7,13.51,4.39,102.4
"2010-01-11 00:44:00",1581482,2.459,131.9,9.77,1.247,7.396,101.6966,3.629,4.823,31.63,0,109.7,13.51,4.39,93.9
"2010-01-11 00:44:30",1581483,1.827,120.4,6.159,1.012,6.615,101.6966,3.629,4.833,31.1,0,109.7,13.51,4.39,82.4
"2010-01-11 00:45:00",1581484,2.162,117,7.871,1.156,6.249,101.6966,3.629,4.706,30.29,0,109.7,13.51,4.39,79.0
"2010-01-11 00:45:30",1581485,1.502,117,2.589,0.067,4.895,101.6969,3.629,4.751,30.04,0,109.7,13.55,4.39,79.0
"2010-01-11 00:46:00",1581486,1.441,111.7,4.159,0.255,5.495,101.6966,3.629,4.732,30.09,0,109.7,13.55,4.39,73.7
"2010-01-11 00:46:30",1581487,2.644,116.9,5.527,1.292,7.214,101.6966,3.629,4.734,30.01,0,109.7,13.51,4.39,78.9
"2010-01-11 00:47:00",1581488,2.61,122.1,9.76,1.291,8.16,101.6969,3.629,4.914,30.27,0,109.7,13.51,4.39,84.1
"2010-01-11 00:47:30",1581489,3.048,114.8,8.5,1.186,9.87,101.6972,3.63,4.887,30.15,0,109.7,13.51,4.39,76.8
"2010-01-11 00:48:00",1581490,2.733,116.3,8.06,1.239,7.899,101.6966,3.629,4.827,29.88,0,109.7,13.51,4.39,78.3
"2010-01-11 00:48:30",1581491,2.42,109.7,8.37,1.26,7.747,101.6966,3.629,4.804,29.79,0,109.7,13.51,4.39,71.7
"2010-01-11 00:49:00",1581492,1.403,105.3,5.513,0.242,5.507,101.6981,3.632,4.811,29.94,0,109.7,13.54,4.40,67.3
"2010-01-11 00:49:30",1581493,1.426,107.2,2.86,0.103,4.802,101.6969,3.629,4.677,29.75,0,109.7,13.54,4.39,69.2
"2010-01-11 00:50:00",1581494,1.404,106.5,2.33,0.065,5.121,101.6998,3.637,4.765,29.94,0,109.7,13.54,4.40,68.5
"2010-01-11 00:50:30",1581495,2.519,104.6,15.58,1.333,7.71,101.6978,3.632,4.805,29.9,0,109.7,13.51,4.40,66.6
"2010-01-11 00:51:00",1581496,2.351,92.1,7.381,1.249,8.58,101.7004,3.638,4.915,29.78,0,109.7,13.51,4.40,54.1
"2010-01-11 00:51:30",1581497,2.837,100.2,9.26,1.255,9.16,101.701,3.64,4.751,29.47,0,109.7,13.51,4.40,62.2
"2010-01-11 00:52:00",1581498,2.378,99.1,6.921,1.27,8.67,101.7081,3.658,4.858,29.54,0,109.7,13.51,4.42,61.1
"2010-01-11 00:52:30",1581499,2.105,104.2,14.26,1.188,7.233,101.7087,3.66,4.794,29.51,0,109.7,13.52,4.42,66.2
"2010-01-11 00:53:00",1581500,1.151,100.2,11.06,0.143,4.996,101.709,3.66,4.698,29.55,0,109.7,13.55,4.43,62.2
"2010-01-11 00:53:30",1581501,1.146,91.2,6.21,0.125,4.888,101.7119,3.668,4.7,29.69,0,109.7,13.55,4.43,53.2
"2010-01-11 00:54:00",1581502,1.862,98.8,7.184,1.134,6.234,101.7153,3.676,4.7,29.46,0,109.7,13.52,4.44,60.8
"2010-01-11 00:54:30",1581503,2.007,103.7,5.549,1.192,7.419,101.7188,3.685,4.847,29.43,0,109.7,13.53,4.45,65.7
"2010-01-11 00:55:00",1581504,1.715,104.5,5.435,1.085,6.811,101.7196,3.687,4.82,29.53,0,109.7,13.53,4.45,66.5
"2010-01-11 00:55:30",1581505,2.1,112.2,6.39,1.241,7.644,101.7237,3.698,4.829,29.84,0,109.7,13.53,4.46,74.2
"2010-01-11 00:56:00",1581506,3.095,107.8,9.84,1.202,9.48,101.7228,3.696,4.907,29.95,0,109.7,13.53,4.46,69.8
"2010-01-11 00:56:30",1581507,3.095,114.6,5.276,1.222,8.7,101.7254,3.702,4.936,29.7,0,109.7,13.53,4.47,76.6
"2010-01-11 00:57:00",1581508,1.706,95.5,10.95,0.222,5.263,101.7271,3.707,4.69,29.51,0,109.7,13.56,4.47,57.5
"2010-01-11 00:57:30",1581509,1.414,100.1,4.087,0.16,5.042,101.7294,3.712,4.701,29.31,0,109.7,13.56,4.48,62.1
"2010-01-11 00:58:00",1581510,2.81,100.3,9.24,1.21,7.647,101.7283,3.709,4.825,29.3,0,109.7,13.53,4.47,62.3
"2010-01-11 00:58:30",1581511,2.143,103.2,5.993,1.121,6.834,101.7291,3.712,4.911,29.27,0,109.7,13.53,4.48,65.2
"2010-01-11 00:59:00",1581512,2.738,107.1,5.839,1.234,7.845,101.7312,3.717,4.763,29.21,0,109.7,13.53,4.48,69.1
"2010-01-11 00:59:30",1581513,2.376,103.5,5.191,1.164,7.306,101.7306,3.715,4.871,29.52,0,109.7,13.53,4.48,65.5
"2010-01-11 01:00:00",1581514,3.282,103.9,5.888,1.259,9.39,101.73,3.714,4.958,29.53,0,109.7,13.53,4.48,65.9
"2010-01-11 01:00:30",1581515,2.297,102.7,5.497,1.147,7.29,101.7306,3.715,4.865,29.28,0,109.7,13.53,4.48,64.7
"2010-01-11 01:01:00",1581516,1.671,104.1,6.636,0.09,4.998,101.7312,3.717,4.698,29.11,0,109.7,13.56,4.48,66.1
"2010-01-11 01:01:30",1581517,1.804,107.4,4.471,0.107,4.796,101.7312,3.717,4.774,29.79,0,109.7,13.56,4.48,69.4
"2010-01-11 01:02:00",1581518,3.375,119.8,6.842,1.182,7.28,101.7312,3.717,4.815,30.33,0,109.7,13.53,4.48,81.8
"2010-01-11 01:02:30",1581519,2.649,111.5,6.807,1.152,6.636,101.7312,3.717,4.833,30.48,0,109.7,13.53,4.48,73.5
"2010-01-11 01:03:00",1581520,3.645,117.2,6.678,1.29,8.36,101.7312,3.717,4.963,30.59,0,109.7,13.53,4.48,79.2
"2010-01-11 01:03:30",1581521,3.865,119.5,5.843,1.215,8.52,101.7312,3.717,4.982,30.97,0,109.7,13.53,4.48,81.5
"2010-01-11 01:04:00",1581522,3.745,119.3,6.076,1.228,7.681,101.7312,3.717,4.843,31.2,0,109.7,13.53,4.48,81.3
"2010-01-11 01:04:30",1581523,2.683,114.9,1.408,0.061,5.124,101.7312,3.717,4.765,31.53,0,109.7,13.55,4.48,76.9
"2010-01-11 01:05:00",1581524,3.571,120.2,7.031,1.239,6.839,101.7326,3.72,4.91,32.44,0,109.7,13.52,4.49,82.2
"2010-01-11 01:05:30",1581525,4.627,124.1,6.348,1.177,8.08,101.7399,3.739,4.924,33.07,0,109.7,13.52,4.50,86.1
"2010-01-11 01:06:00",1581526,4.385,125.8,7.277,1.232,7.799,101.7507,3.767,4.953,33.38,0,109.7,13.52,4.53,87.8
"2010-01-11 01:06:30",1581527,4.536,129.2,6.21,1.249,8.47,101.7592,3.788,4.996,34.09,0,109.7,13.52,4.55,91.2
"2010-01-11 01:07:00",1581528,4.396,133.1,6.317,1.245,8.32,101.7645,3.802,5.009,34.56,0,109.7,13.52,4.57,95.1
"2010-01-11 01:07:30",1581529,3.787,132.5,5.419,1.174,6.387,101.7651,3.803,4.775,33.92,0,109.7,13.52,4.57,94.5
"2010-01-11 01:08:00",1581530,4.363,137.5,6.816,1.274,6.974,101.7651,3.803,4.935,33.34,0,109.7,13.52,4.57,99.5
"2010-01-11 01:08:30",1581531,4.115,136.2,6.197,1.247,6.641,101.7651,3.803,4.918,32.55,0,109.7,13.53,4.57,98.2
"2010-01-11 01:09:00",1581532,4.543,140.4,6.709,1.266,7.868,101.7651,3.803,5.034,32.27,0,109.7,13.53,4.57,102.4
"2010-01-11 01:09:30",1581533,5.144,141,6.465,1.202,8.22,101.7651,3.803,5.003,32.02,0,109.7,13.53,4.57,103.0
"2010-01-11 01:10:00",1581534,5.221,142.9,6.076,1.149,8.53,101.7651,3.803,5.016,32.13,0,109.7,13.53,4.57,104.9
"2010-01-11 01:10:30",1581535,3.947,136.8,4.663,0.883,5.938,101.7651,3.803,4.937,32.13,0,109.7,13.53,4.57,98.8
"2010-01-11 01:11:00",1581536,4.719,141.4,6.793,1.263,7.211,101.7651,3.803,4.937,32.05,0,109.7,13.53,4.57,103.4
"2010-01-11 01:11:30",1581537,4.703,141.1,6.568,1.249,7.222,101.7651,3.803,4.903,32,0,109.7,13.53,4.57,103.1
"2010-01-11 01:12:00",1581538,5.655,146.1,5.336,0.954,9.2,101.7648,3.803,5.007,32.08,0,109.7,13.53,4.57,108.1
"2010-01-11 01:12:30",1581539,5.411,143.7,5.597,1.071,9,101.7645,3.802,5.07,32.03,0,109.7,13.53,4.57,105.7
"2010-01-11 01:13:00",1581540,4.89,141.6,6.319,1.199,8.03,101.762,3.796,4.978,31.78,0,109.7,13.53,4.56,103.6
"2010-01-11 01:13:30",1581541,3.359,133.2,0.696,0.055,5.186,101.76,3.79,4.862,31.59,0,109.7,13.56,4.56,95.2
"2010-01-11 01:14:00",1581542,3.939,134.8,4.019,0.978,5.539,101.7546,3.777,4.774,31.41,0,109.7,13.53,4.54,96.8
"2010-01-11 01:14:30",1581543,4.672,140.8,6.567,1.212,7.638,101.7546,3.777,4.951,31.73,0,109.7,13.53,4.54,102.8
"2010-01-11 01:15:00",1581544,5.17,143.6,5.777,1.199,8.7,101.747,3.757,5.01,31.92,0,109.7,13.53,4.52,105.6
"2010-01-11 01:15:30",1581545,5.486,143.9,5.584,1.076,9.29,101.7464,3.756,5.078,32.25,0,109.7,13.53,4.52,105.9
"2010-01-11 01:16:00",1581546,5.466,144.9,5.238,1.116,8.74,101.743,3.747,5.037,32.19,0,109.7,13.53,4.51,106.9
"2010-01-11 01:16:30",1581547,4.161,138.4,4.903,1.018,6.277,101.7411,3.742,4.908,31.85,0,109.7,13.53,4.51,100.4
"2010-01-11 01:17:00",1581548,3.913,140.2,3.823,0.844,5.515,101.7396,3.738,4.784,31.36,0,109.7,13.53,4.50,102.2
"2010-01-11 01:17:30",1581549,4.883,147.3,7.108,1.2,7.861,101.7382,3.735,4.927,31.21,0,109.7,13.53,4.50,109.3
"2010-01-11 01:18:00",1581550,5.196,149.7,6.017,1.198,9.02,101.7382,3.735,5.004,30.78,0,109.7,13.53,4.50,111.7
"2010-01-11 01:18:30",1581551,5.958,153.9,4.112,0.673,10.04,101.7385,3.736,5.032,30.4,0,109.7,13.53,4.50,115.9
"2010-01-11 01:19:00",1581552,4.983,148.6,5.839,1.263,8.08,101.7439,3.749,4.999,30.09,0,109.7,13.53,4.51,110.6
"2010-01-11 01:19:30",1581553,4.495,145.2,6.482,1.172,6.956,101.7436,3.749,4.902,29.96,0,109.7,13.53,4.51,107.2
"2010-01-11 01:20:00",1581554,4.154,140.7,3.704,0.807,5.202,101.7467,3.757,4.773,29.88,0,109.7,13.53,4.52,102.7
"2010-01-11 01:20:30",1581555,5.323,146.7,6.231,1.246,8.55,101.7527,3.772,5.019,30.12,0,109.7,13.53,4.54,108.7
"2010-01-11 01:21:00",1581556,5.79,148.5,5.347,1.183,9.2,101.7606,3.792,5.003,30.11,0,109.7,13.53,4.56,110.5
"2010-01-11 01:21:30",1581557,5.742,148,6.175,1.102,9.11,101.7637,3.8,5.043,30.34,0,109.7,13.53,4.57,110.0
"2010-01-11 01:22:00",1581558,5.761,147.9,5.563,1.158,8.46,101.7648,3.803,5.011,30.45,0,109.7,13.52,4.57,109.9
"2010-01-11 01:22:30",1581559,4.506,142,5.289,0.965,6.154,101.7651,3.803,4.834,30.38,0,109.7,13.52,4.57,104.0
"2010-01-11 01:23:00",1581560,4.71,141,5.528,1.162,5.685,101.7651,3.803,4.789,30.41,0,109.7,13.52,4.57,103.0
"2010-01-11 01:23:30",1581561,5.52,146.1,6.132,1.245,7.973,101.7651,3.803,5.012,30.57,0,109.7,13.53,4.57,108.1
"2010-01-11 01:24:00",1581562,5.959,149.5,5.331,1.032,9.69,101.7654,3.804,5.054,30.36,0,109.7,13.53,4.57,111.5
"2010-01-11 01:24:30",1581563,5.869,150.6,5.095,1.023,9.92,101.7651,3.803,5.127,30.03,0,109.7,13.53,4.57,112.6
"2010-01-11 01:25:00",1581564,5.642,149.8,5.995,1.163,8.51,101.7651,3.803,4.975,29.72,0,109.7,13.53,4.57,111.8
"2010-01-11 01:25:30",1581565,4.159,142.7,2.746,0.219,5.58,101.7651,3.803,4.906,29.6,0,109.7,13.56,4.57,104.7
"2010-01-11 01:26:00",1581566,5.135,145.1,5.804,1.192,6.548,101.7651,3.803,4.832,29.52,0,109.7,13.53,4.57,107.1
"2010-01-11 01:26:30",1581567,5.485,146,7.277,1.356,8.39,101.7654,3.804,5.051,29.99,0,109.7,13.53,4.57,108.0
"2010-01-11 01:27:00",1581568,6.4,151.8,4.646,0.799,10.49,101.775,3.829,5.081,29.99,0,109.7,13.53,4.59,113.8
"2010-01-11 01:27:30",1581569,6.407,152.2,4.302,0.726,10.22,101.7866,3.858,5.066,30.21,0,109.7,13.53,4.62,114.2
"2010-01-11 01:28:00",1581570,5.12,145.6,6.477,1.231,8.23,101.7973,3.886,5.102,30.1,0,109.7,13.53,4.65,107.6
"2010-01-11 01:28:30",1581571,4.067,141.2,5.076,0.955,5.955,101.7993,3.891,4.881,29.71,0,109.7,13.53,4.66,103.2
"2010-01-11 01:29:00",1581572,3.319,138.2,4.225,0.194,5.931,101.7993,3.891,4.967,29.65,0,109.7,13.57,4.66,100.2
"2010-01-11 01:29:30",1581573,5.101,143.6,6.718,1.351,8.85,101.7993,3.891,5.068,29.7,0,109.7,13.53,4.66,105.6
"2010-01-11 01:30:00",1581574,4.871,145.2,7.189,1.311,8.91,101.8027,3.9,5.107,29.72,0,109.7,13.53,4.67,107.2
"2010-01-11 01:30:30",1581575,5.985,150.2,4.1,0.852,10.51,101.82,3.944,5.193,30.02,0,109.7,13.53,4.71,112.2
"2010-01-11 01:31:00",1581576,5.129,144.7,6.729,1.293,8.09,101.833,3.977,5.105,30,0,109.7,13.53,4.74,106.7
"2010-01-11 01:31:30",1581577,3.928,137.5,4.386,0.601,5.821,101.8333,3.978,4.985,29.86,0,109.7,13.53,4.74,99.5
"2010-01-11 01:32:00",1581578,4.898,141.9,5.767,1.174,7.103,101.8339,3.979,5.064,30.08,0,109.7,13.53,4.75,103.9
"2010-01-11 01:32:30",1581579,5.202,141.8,7.041,1.316,7.424,101.833,3.977,5.099,30.18,0,109.7,13.54,4.74,103.8
"2010-01-11 01:33:00",1581580,6.467,145.5,5.916,1.167,9.78,101.8336,3.978,5.194,30.27,0,109.7,13.54,4.74,107.5
"2010-01-11 01:33:30",1581581,6.941,147.9,2.885,0.777,10.15,101.833,3.977,5.269,30.52,0,109.6,13.54,4.74,109.9
"2010-01-11 01:34:00",1581582,6.402,143.8,5.793,1.197,8.96,101.8378,3.989,5.231,30.6,0,109.7,13.53,4.76,105.8
"2010-01-11 01:34:30",1581583,5.298,135,6.072,1.126,6.141,101.8517,4.024,5.058,30.75,0,109.7,13.53,4.79,97.0
"2010-01-11 01:35:00",1581584,5.482,134.9,6.256,1.223,6.739,101.8605,4.047,5.054,31.02,0,109.7,13.53,4.81,96.9
"2010-01-11 01:35:30",1581585,5.358,131.2,5.757,1.187,7.192,101.8604,4.047,5.197,31.55,0,109.7,13.53,4.81,93.2
"2010-01-11 01:36:00",1581586,6.406,136,3.385,0.704,9.83,101.8587,4.043,5.33,32.11,0,109.7,13.53,4.81,98.0
"2010-01-11 01:36:30",1581587,6.434,135.6,3.515,0.856,9.66,101.8466,4.012,5.348,32.41,0,109.7,13.53,4.78,97.6
"2010-01-11 01:37:00",1581588,6.484,133.1,5.048,0.81,9.03,101.837,3.987,5.28,32.26,0,109.7,13.53,4.75,95.1
"2010-01-11 01:37:30",1581589,4.347,122.3,0.522,0.068,4.61,101.8347,3.981,5.02,32.08,0,109.7,13.56,4.75,84.3
"2010-01-11 01:38:00",1581590,5.292,126.3,6.453,1.255,6.59,101.8339,3.979,5.142,32.33,0,109.7,13.53,4.75,88.3
"2010-01-11 01:38:30",1581591,5.01,125.2,6.583,1.144,7.035,101.835,3.982,5.192,32.57,0,109.7,13.53,4.75,87.2
"2010-01-11 01:39:00",1581592,6.414,131.7,6.196,0.957,9.12,101.8347,3.981,5.23,32.49,0,109.7,13.53,4.75,93.7
"2010-01-11 01:39:30",1581593,6.551,136.1,3.563,0.879,9.87,101.8229,3.951,5.313,32.11,0,109.7,13.53,4.72,98.1
"2010-01-11 01:40:00",1581594,6.374,136.3,4.482,1.079,8.75,101.8056,3.907,5.25,31.84,0,109.7,13.53,4.67,98.3
"2010-01-11 01:40:30",1581595,4.41,125.7,0.575,0.03,4.971,101.8045,3.904,5.053,31.65,0,109.7,13.56,4.67,87.7
"2010-01-11 01:41:00",1581596,5.592,133.6,6.118,1.239,6.635,101.8039,3.903,5.024,31.48,0,109.7,13.53,4.67,95.6
"2010-01-11 01:41:30",1581597,5.659,135,6.121,1.247,7.442,101.8025,3.899,5.083,31.21,0,109.7,13.53,4.66,97.0
"2010-01-11 01:42:00",1581598,6.561,137.4,2.604,0.851,9.72,101.8011,3.895,5.224,31.6,0,109.7,13.54,4.66,99.4
"2010-01-11 01:42:30",1581599,6.666,136.7,3.093,0.776,9.83,101.7912,3.87,5.234,31.98,0,109.7,13.54,4.64,98.7
"2010-01-11 01:43:00",1581600,6.67,133.4,4.114,0.753,8.85,101.779,3.839,5.13,32.21,0,109.7,13.54,4.60,95.4
"2010-01-11 01:43:30",1581601,5.105,126.3,6.081,1.108,6.22,101.7709,3.818,5.044,32.45,0,109.7,13.53,4.58,88.3
"2010-01-11 01:44:00",1581602,4.748,123.2,4.13,0.861,5.177,101.7714,3.82,5.002,32.43,0,109.7,13.54,4.58,85.2
"2010-01-11 01:44:30",1581603,6.023,130.6,5.922,1.182,7.884,101.7717,3.82,5.023,32.52,0,109.7,13.54,4.59,92.6
"2010-01-11 01:45:00",1581604,6.387,128.9,5.442,1.005,8.73,101.7732,3.824,5.146,33.05,0,109.7,13.54,4.59,90.9
"2010-01-11 01:45:30",1581605,6.401,128.8,5.431,0.946,9.35,101.7729,3.823,5.133,33.77,0,109.7,13.54,4.59,90.8
"2010-01-11 01:46:00",1581606,5.912,126.1,6.461,1.224,7.704,101.7545,3.776,5.087,34.42,0,109.7,13.54,4.54,88.1
"2010-01-11 01:46:30",1581607,5.164,123.4,5.928,1.2,6.146,101.7392,3.737,5.015,34.78,0,109.7,13.54,4.50,85.4
"2010-01-11 01:47:00",1581608,5.391,124.8,6.051,1.233,6.408,101.7401,3.74,4.973,34.56,0,109.7,13.54,4.50,86.8
"2010-01-11 01:47:30",1581609,5.055,125.8,6.395,1.135,6.235,101.7409,3.742,5.001,34.22,0,109.7,13.54,4.51,87.8
"2010-01-11 01:48:00",1581610,6.138,132.3,6.223,1.15,8.73,101.7381,3.735,5.045,33.34,0,109.7,13.54,4.50,94.3
"2010-01-11 01:48:30",1581611,6.641,130.4,3.775,0.681,9.28,101.7152,3.676,5.042,33.82,0,109.7,13.54,4.44,92.4
"2010-01-11 01:49:00",1581612,6.144,126.4,5.8,1.069,7.462,101.7087,3.66,4.953,34.76,0,109.7,13.54,4.42,88.4
"2010-01-11 01:49:30",1581613,5.77,125.1,6.32,1.209,7.181,101.7107,3.665,4.993,35.5,0,109.7,13.54,4.43,87.1
"2010-01-11 01:50:00",1581614,5.316,122.2,5.706,1.19,5.897,101.7087,3.66,4.789,35.62,0,109.7,13.54,4.42,84.2